Time,TemperatureF,DewpointF,PressureIn,WindDirection,WindDirectionDegrees,WindSpeedMPH,WindSpeedGustMPH,Humidity,HourlyPrecipIn,Conditions,Clouds,dailyrainin,SoftwareType,DateUTC
2013-09-21 00:03:00,64.5,43.3,29.86,WSW,254,3.5,3.5,46,0.00,CLR,,0.00,WeatherDisplay:10.37,2013-09-21 07:03:00,
2013-09-21 00:08:00,64.3,44.7,29.86,WSW,244,4.6,4.6,49,0.00,CLR,,0.00,WeatherDisplay:10.37,2013-09-21 07:08:00,
2013-09-21 00:13:00,64.3,44.7,29.86,West,273,4.6,4.6,49,0.00,CLR,,0.00,WeatherDisplay:10.37,2013-09-21 07:13:00,
2013-09-21 00:18:00,64.3,45.3,29.86,West,275,4.0,4.0,50,0.00,CLR,,0.00,WeatherDisplay:10.37,2013-09-21 07:18:00,
2013-09-21 00:23:00,64.2,44.6,29.86,WSW,254,3.5,3.5,49,0.00,CLR,,0.00,WeatherDisplay:10.37,2013-09-21 07:23:00,
2013-09-21 00:28:00,64.1,44.0,29.86,WSW,240,5.8,5.8,48,0.00,CLR,,0.00,WeatherDisplay:10.37,2013-09-21 07:28:00,
2013-09-21 00:33:00,64.0,43.4,29.86,West,260,6.9,6.9,47,0.00,CLR,,0.00,WeatherDisplay:10.37,2013-09-21 07:33:00,
2013-09-21 00:38:00,64.1,43.4,29.86,West,260,3.5,3.5,47,0.00,CLR,,0.00,WeatherDisplay:10.37,2013-09-21 07:38:00,
2013-09-21 00:43:00,64.1,42.3,29.86,West,271,5.8,5.8,45,0.00,CLR,,0.00,WeatherDisplay:10.37,2013-09-21 07:43:00,
2013-09-21 00:48:00,64.1,41.7,29.86,WSW,250,3.5,3.5,44,0.00,CLR,,0.00,WeatherDisplay:10.37,2013-09-21 07:48:00,
2013-09-21 00:53:00,64.0,41.6,29.86,SW,227,5.8,5.8,44,0.00,CLR,,0.00,WeatherDisplay:10.37,2013-09-21 07:53:00,
2013-09-21 00:58:00,63.9,41.5,29.86,SW,236,6.9,6.9,44,0.00,CLR,,0.00,WeatherDisplay:10.37,2013-09-21 07:58:00,
2013-09-21 01:03:00,64.0,39.8,29.86,West,273,6.9,6.9,41,0.00,CLR,,0.00,WeatherDisplay:10.37,2013-09-21 08:03:00,
2013-09-21 01:08:00,64.4,39.5,29.86,West,275,5.8,5.8,40,0.00,CLR,,0.00,WeatherDisplay:10.37,2013-09-21 08:08:00,
2013-09-21 01:13:00,64.5,39.6,29.86,West,272,6.9,6.9,40,0.00,CLR,,0.00,WeatherDisplay:10.37,2013-09-21 08:13:00,
2013-09-21 01:18:00,64.5,39.6,29.86,West,281,5.0,5.0,40,0.00,CLR,,0.00,WeatherDisplay:10.37,2013-09-21 08:18:00,
2013-09-21 01:23:00,64.2,41.2,29.86,WSW,250,6.9,6.9,43,0.00,CLR,,0.00,WeatherDisplay:10.37,2013-09-21 08:23:00,
2013-09-21 01:28:00,63.8,41.5,29.86,WSW,238,4.6,4.6,44,0.00,CLR,,0.00,WeatherDisplay:10.37,2013-09-21 08:28:00,
2013-09-21 01:33:00,63.4,41.7,29.86,WSW,243,6.9,6.9,45,0.00,CLR,,0.00,WeatherDisplay:10.37,2013-09-21 08:33:00,
2013-09-21 01:38:00,63.4,40.5,29.86,WSW,250,10.4,10.4,43,0.00,CLR,,0.00,WeatherDisplay:10.37,2013-09-21 08:38:00,
2013-09-21 01:43:00,63.4,39.9,29.86,West,271,4.6,4.6,42,0.00,CLR,,0.00,WeatherDisplay:10.37,2013-09-21 08:43:00,
2013-09-21 01:48:00,63.5,40.0,29.86,West,281,4.6,4.6,42,0.00,CLR,,0.00,WeatherDisplay:10.37,2013-09-21 08:48:00,
2013-09-21 01:53:00,64.0,39.2,29.86,WNW,290,6.9,6.9,40,0.00,CLR,,0.00,WeatherDisplay:10.37,2013-09-21 08:53:00,
2013-09-21 01:58:00,64.3,39.4,29.86,West,273,6.9,6.9,40,0.00,CLR,,0.00,WeatherDisplay:10.37,2013-09-21 08:58:00,
2013-09-21 02:03:00,64.2,39.4,29.86,West,259,7.0,7.0,40,0.00,CLR,,0.00,WeatherDisplay:10.37,2013-09-21 09:03:00,
2013-09-21 02:08:00,63.9,39.7,29.86,West,272,10.4,10.4,41,0.00,CLR,,0.00,WeatherDisplay:10.37,2013-09-21 09:08:00,
2013-09-21 02:13:00,63.7,39.5,29.86,West,259,10.4,10.4,41,0.00,CLR,,0.00,WeatherDisplay:10.37,2013-09-21 09:13:00,
2013-09-21 02:18:00,63.4,39.3,29.86,West,260,4.6,4.6,41,0.00,CLR,,0.00,WeatherDisplay:10.37,2013-09-21 09:18:00,
2013-09-21 02:23:00,63.0,39.5,29.86,West,262,6.9,6.9,42,0.00,CLR,,0.00,WeatherDisplay:10.37,2013-09-21 09:23:00,
2013-09-21 02:28:00,63.0,39.5,29.86,West,280,4.6,4.6,42,0.00,CLR,,0.00,WeatherDisplay:10.37,2013-09-21 09:28:00,
2013-09-21 02:33:00,63.1,39.6,29.86,West,281,4.6,4.6,42,0.00,CLR,,0.00,WeatherDisplay:10.37,2013-09-21 09:33:00,
2013-09-21 02:38:00,63.1,39.6,29.86,West,277,5.8,5.8,42,0.00,CLR,,0.00,WeatherDisplay:10.37,2013-09-21 09:38:00,
2013-09-21 02:43:00,63.2,39.7,29.86,West,278,5.8,5.8,42,0.00,CLR,,0.00,WeatherDisplay:10.37,2013-09-21 09:43:00,
2013-09-21 02:48:00,63.2,39.7,29.86,West,261,5.8,5.8,42,0.00,CLR,,0.00,WeatherDisplay:10.37,2013-09-21 09:48:00,
2013-09-21 02:53:00,63.1,39.6,29.86,West,262,9.2,9.2,42,0.00,CLR,,0.00,WeatherDisplay:10.37,2013-09-21 09:53:00,
2013-09-21 02:58:00,62.9,39.4,29.86,WSW,253,7.0,7.0,42,0.00,CLR,,0.00,WeatherDisplay:10.37,2013-09-21 09:58:00,
2013-09-21 03:03:00,62.6,39.8,29.86,WSW,251,6.9,6.9,43,0.00,CLR,,0.00,WeatherDisplay:10.37,2013-09-21 10:03:00,
2013-09-21 03:08:00,62.2,40.0,29.86,WSW,250,7.0,7.0,44,0.00,CLR,,0.00,WeatherDisplay:10.37,2013-09-21 10:08:00,
2013-09-21 03:13:00,62.0,40.4,29.86,WSW,254,4.6,4.6,45,0.00,CLR,,0.00,WeatherDisplay:10.37,2013-09-21 10:13:00,
2013-09-21 03:18:00,61.7,40.7,29.86,WSW,257,4.6,4.6,46,0.00,CLR,,0.00,WeatherDisplay:10.37,2013-09-21 10:18:00,
2013-09-21 03:23:00,61.6,40.6,29.86,West,261,3.5,3.5,46,0.00,CLR,,0.00,WeatherDisplay:10.37,2013-09-21 10:23:00,
2013-09-21 03:28:00,61.4,41.0,29.86,West,261,3.5,3.5,47,0.00,CLR,,0.00,WeatherDisplay:10.37,2013-09-21 10:28:00,
2013-09-21 03:33:00,61.3,40.9,29.86,WSW,251,4.0,4.0,47,0.00,CLR,,0.00,WeatherDisplay:10.37,2013-09-21 10:33:00,
2013-09-21 03:38:00,61.0,41.2,29.86,WSW,252,4.0,4.0,48,0.00,CLR,,0.00,WeatherDisplay:10.37,2013-09-21 10:38:00,
2013-09-21 03:43:00,60.8,41.0,29.86,WSW,253,3.5,3.5,48,0.00,CLR,,0.00,WeatherDisplay:10.37,2013-09-21 10:43:00,
2013-09-21 03:48:00,60.7,41.9,29.86,WSW,241,5.8,5.8,50,0.00,CLR,,0.00,WeatherDisplay:10.37,2013-09-21 10:48:00,
2013-09-21 03:53:00,60.6,41.8,29.86,WSW,249,3.5,3.5,50,0.00,CLR,,0.00,WeatherDisplay:10.37,2013-09-21 10:53:00,
2013-09-21 03:58:00,60.6,41.8,29.86,WSW,250,10.4,10.4,50,0.00,CLR,,0.00,WeatherDisplay:10.37,2013-09-21 10:58:00,
2013-09-21 04:03:00,60.8,42.0,29.86,West,260,5.0,5.0,50,0.00,CLR,,0.00,WeatherDisplay:10.37,2013-09-21 11:03:00,
2013-09-21 04:08:00,60.8,42.0,29.86,West,263,4.6,4.6,50,0.00,CLR,,0.00,WeatherDisplay:10.37,2013-09-21 11:08:00,
2013-09-21 04:13:00,60.9,42.6,29.86,West,263,4.6,4.6,51,0.00,CLR,,0.00,WeatherDisplay:10.37,2013-09-21 11:13:00,
2013-09-21 04:18:00,60.7,43.0,29.86,West,273,4.0,4.0,52,0.00,CLR,,0.00,WeatherDisplay:10.37,2013-09-21 11:18:00,
2013-09-21 04:23:00,60.7,43.0,29.86,West,278,3.5,3.5,52,0.00,CLR,,0.00,WeatherDisplay:10.37,2013-09-21 11:23:00,
2013-09-21 04:28:00,60.8,43.6,29.86,West,277,3.5,3.5,53,0.00,CLR,,0.00,WeatherDisplay:10.37,2013-09-21 11:28:00,
2013-09-21 04:33:00,60.6,43.4,29.86,WSW,250,4.6,4.6,53,0.00,CLR,,0.00,WeatherDisplay:10.37,2013-09-21 11:33:00,
2013-09-21 04:38:00,60.1,43.4,29.86,West,265,5.0,5.0,54,0.00,CLR,,0.00,WeatherDisplay:10.37,2013-09-21 11:38:00,
2013-09-21 04:43:00,60.1,43.9,29.86,West,275,5.8,5.8,55,0.00,CLR,,0.00,WeatherDisplay:10.37,2013-09-21 11:43:00,
2013-09-21 04:48:00,60.2,44.0,29.86,WSW,258,4.6,4.6,55,0.00,CLR,,0.00,WeatherDisplay:10.37,2013-09-21 11:48:00,
2013-09-21 04:53:00,59.9,43.2,29.86,WSW,258,2.3,2.3,54,0.00,CLR,,0.00,WeatherDisplay:10.37,2013-09-21 11:53:00,
2013-09-21 04:58:00,59.3,43.1,29.86,WSW,253,3.5,3.5,55,0.00,CLR,,0.00,WeatherDisplay:10.37,2013-09-21 11:58:00,
2013-09-21 05:03:00,59.0,43.8,29.86,West,264,3.5,3.5,57,0.00,CLR,,0.00,WeatherDisplay:10.37,2013-09-21 12:03:00,
2013-09-21 05:08:00,58.5,44.2,29.86,West,264,2.3,2.3,59,0.00,CLR,,0.00,WeatherDisplay:10.37,2013-09-21 12:08:00,
2013-09-21 05:13:00,58.2,44.8,29.86,WSW,254,3.5,3.5,61,0.00,CLR,,0.00,WeatherDisplay:10.37,2013-09-21 12:13:00,
2013-09-21 05:18:00,57.9,45.0,29.86,SW,227,3.5,3.5,62,0.00,CLR,,0.00,WeatherDisplay:10.37,2013-09-21 12:18:00,
2013-09-21 05:23:00,57.7,45.2,29.86,WSW,239,3.5,3.5,63,0.00,CLR,,0.00,WeatherDisplay:10.37,2013-09-21 12:23:00,
2013-09-21 05:28:00,57.3,44.4,29.86,WSW,240,3.5,3.5,62,0.00,CLR,,0.00,WeatherDisplay:10.37,2013-09-21 12:28:00,
2013-09-21 05:33:00,57.0,44.5,29.86,WSW,240,3.5,3.5,63,0.00,CLR,,0.00,WeatherDisplay:10.37,2013-09-21 12:33:00,
2013-09-21 05:38:00,56.8,44.7,29.86,WSW,240,3.5,3.5,64,0.00,CLR,,0.00,WeatherDisplay:10.37,2013-09-21 12:38:00,
2013-09-21 05:43:00,56.7,45.1,29.86,WSW,240,3.5,3.5,65,0.00,CLR,,0.00,WeatherDisplay:10.37,2013-09-21 12:43:00,
2013-09-21 05:48:00,56.4,45.2,29.86,WSW,240,3.5,3.5,66,0.00,CLR,,0.00,WeatherDisplay:10.37,2013-09-21 12:48:00,
2013-09-21 05:53:00,56.4,45.6,29.86,WSW,240,2.3,2.3,67,0.00,CLR,,0.00,WeatherDisplay:10.37,2013-09-21 12:53:00,
2013-09-21 05:58:00,56.4,45.6,29.86,West,262,3.5,3.5,67,0.00,CLR,,0.00,WeatherDisplay:10.37,2013-09-21 12:58:00,
2013-09-21 06:03:00,56.4,45.6,29.86,West,262,3.0,3.0,67,0.00,CLR,,0.00,WeatherDisplay:10.37,2013-09-21 13:03:00,
2013-09-21 06:08:00,56.3,45.9,29.87,West,262,0.0,0.0,68,0.00,CLR,,0.00,WeatherDisplay:10.37,2013-09-21 13:08:00,
2013-09-21 06:13:00,56.4,46.4,29.86,West,261,2.3,2.3,69,0.00,CLR,,0.00,WeatherDisplay:10.37,2013-09-21 13:13:00,
2013-09-21 06:18:00,56.4,46.4,29.87,West,261,0.0,0.0,69,0.00,CLR,,0.00,WeatherDisplay:10.37,2013-09-21 13:18:00,
2013-09-21 06:23:00,56.4,46.0,29.86,West,262,0.0,0.0,68,0.00,CLR,,0.00,WeatherDisplay:10.37,2013-09-21 13:23:00,
2013-09-21 06:28:00,56.3,45.9,29.86,West,262,0.0,0.0,68,0.00,CLR,,0.00,WeatherDisplay:10.37,2013-09-21 13:28:00,
2013-09-21 06:33:00,56.2,45.8,29.86,West,261,3.5,3.5,68,0.00,CLR,,0.00,WeatherDisplay:10.37,2013-09-21 13:33:00,
2013-09-21 06:38:00,56.1,45.7,29.86,West,261,3.5,3.5,68,0.00,CLR,,0.00,WeatherDisplay:10.37,2013-09-21 13:38:00,
2013-09-21 06:43:00,56.2,46.2,29.87,West,262,3.5,3.5,69,0.00,CLR,,0.00,WeatherDisplay:10.37,2013-09-21 13:43:00,
2013-09-21 06:48:00,56.3,46.3,29.87,West,262,2.3,2.3,69,0.00,CLR,,0.00,WeatherDisplay:10.37,2013-09-21 13:48:00,
2013-09-21 06:53:00,56.3,46.3,29.87,West,262,1.2,0.0,69,0.00,CLR,,0.00,WeatherDisplay:10.37,2013-09-21 13:53:00,
2013-09-21 06:58:00,56.3,46.3,29.87,West,261,1.2,1.2,69,0.00,CLR,,0.00,WeatherDisplay:10.37,2013-09-21 13:58:00,
2013-09-21 07:03:00,56.2,46.2,29.87,West,262,2.3,2.3,69,0.00,CLR,,0.00,WeatherDisplay:10.37,2013-09-21 14:03:00,
2013-09-21 07:08:00,56.3,45.9,29.87,West,262,2.3,2.3,68,0.00,CLR,,0.00,WeatherDisplay:10.37,2013-09-21 14:08:00,
2013-09-21 07:13:00,56.4,46.0,29.87,West,261,0.0,0.0,68,0.00,CLR,,0.00,WeatherDisplay:10.37,2013-09-21 14:13:00,
2013-09-21 07:18:00,56.6,46.2,29.87,West,262,0.0,0.0,68,0.00,CLR,,0.00,WeatherDisplay:10.37,2013-09-21 14:18:00,
2013-09-21 07:23:00,56.9,46.4,29.87,West,261,0.0,0.0,68,0.00,CLR,,0.00,WeatherDisplay:10.37,2013-09-21 14:23:00,
2013-09-21 07:28:00,57.2,46.3,29.87,West,261,0.0,0.0,67,0.00,CLR,,0.00,WeatherDisplay:10.37,2013-09-21 14:28:00,
2013-09-21 07:33:00,57.5,46.6,29.87,SW,228,3.5,3.5,67,0.00,CLR,,0.00,WeatherDisplay:10.37,2013-09-21 14:33:00,
2013-09-21 07:38:00,57.8,46.5,29.87,SW,236,2.3,0.0,66,0.00,CLR,,0.00,WeatherDisplay:10.37,2013-09-21 14:38:00,
2013-09-21 07:43:00,58.2,46.9,29.87,SW,234,0.0,0.0,66,0.00,CLR,,0.00,WeatherDisplay:10.37,2013-09-21 14:43:00,
2013-09-21 07:48:00,58.6,46.9,29.87,SW,234,1.2,1.2,65,0.00,CLR,,0.00,WeatherDisplay:10.37,2013-09-21 14:48:00,
2013-09-21 07:53:00,59.0,47.2,29.87,SW,230,9.2,9.2,65,0.00,CLR,,0.00,WeatherDisplay:10.37,2013-09-21 14:53:00,
2013-09-21 07:58:00,59.5,47.3,29.86,SW,214,10.0,10.0,64,0.00,CLR,,0.00,WeatherDisplay:10.37,2013-09-21 14:58:00,
2013-09-21 08:03:00,60.0,47.8,29.87,SW,232,6.9,6.9,64,0.00,CLR,,0.00,WeatherDisplay:10.37,2013-09-21 15:03:00,
2013-09-21 08:08:00,60.6,47.9,29.86,SSW,213,6.0,6.0,63,0.00,CLR,,0.00,WeatherDisplay:10.37,2013-09-21 15:08:00,
2013-09-21 08:13:00,61.3,48.2,29.86,WSW,237,10.4,10.4,62,0.00,CLR,,0.00,WeatherDisplay:10.37,2013-09-21 15:13:00,
2013-09-21 08:18:00,62.1,48.5,29.86,SW,233,9.2,9.2,61,0.00,CLR,,0.00,WeatherDisplay:10.37,2013-09-21 15:18:00,
2013-09-21 08:23:00,62.8,48.7,29.86,SW,229,10.4,10.4,60,0.00,CLR,,0.00,WeatherDisplay:10.37,2013-09-21 15:23:00,
2013-09-21 08:28:00,63.5,48.5,29.86,SW,217,12.0,12.0,58,0.00,CLR,,0.00,WeatherDisplay:10.37,2013-09-21 15:28:00,
2013-09-21 08:33:00,64.0,48.5,29.86,SW,226,11.5,11.5,57,0.00,CLR,,0.00,WeatherDisplay:10.37,2013-09-21 15:33:00,
2013-09-21 08:38:00,64.5,48.0,29.86,SW,232,11.5,11.5,55,0.00,CLR,,0.00,WeatherDisplay:10.37,2013-09-21 15:38:00,
2013-09-21 08:43:00,65.2,48.1,29.86,SW,232,9.2,9.2,54,0.00,CLR,,0.00,WeatherDisplay:10.37,2013-09-21 15:43:00,
2013-09-21 08:48:00,65.9,48.3,29.86,SSW,207,9.2,9.2,53,0.00,CLR,,0.00,WeatherDisplay:10.37,2013-09-21 15:48:00,
2013-09-21 08:53:00,66.4,47.7,29.86,SSW,208,13.0,13.0,51,0.00,CLR,,0.00,WeatherDisplay:10.37,2013-09-21 15:53:00,
2013-09-21 08:59:00,66.9,47.6,29.86,WSW,242,11.5,11.5,50,0.00,CLR,,0.00,WeatherDisplay:10.37,2013-09-21 15:59:00,
2013-09-21 09:04:00,67.5,47.1,29.86,SW,225,11.5,11.5,48,0.00,CLR,,0.00,WeatherDisplay:10.37,2013-09-21 16:04:00,
2013-09-21 09:09:00,68.0,45.9,29.86,WSW,240,11.5,11.5,45,0.00,CLR,,0.00,WeatherDisplay:10.37,2013-09-21 16:09:00,
2013-09-21 09:14:00,68.7,46.5,29.86,SW,217,13.8,13.8,45,0.00,CLR,,0.00,WeatherDisplay:10.37,2013-09-21 16:14:00,
2013-09-21 09:19:00,69.1,46.9,29.87,SSW,210,15.0,15.0,45,0.00,CLR,,0.00,WeatherDisplay:10.37,2013-09-21 16:19:00,
2013-09-21 09:24:00,69.5,46.6,29.87,SW,219,12.7,12.7,44,0.00,CLR,,0.00,WeatherDisplay:10.37,2013-09-21 16:24:00,
2013-09-21 09:29:00,69.5,47.2,29.87,SW,215,12.7,12.7,45,0.00,CLR,,0.00,WeatherDisplay:10.37,2013-09-21 16:29:00,
2013-09-21 09:34:00,69.7,48.6,29.87,West,260,15.0,15.0,47,0.00,CLR,,0.00,WeatherDisplay:10.37,2013-09-21 16:34:00,
2013-09-21 09:39:00,69.4,48.3,29.87,SW,236,15.0,15.0,47,0.00,CLR,,0.00,WeatherDisplay:10.37,2013-09-21 16:39:00,
2013-09-21 09:44:00,69.4,48.3,29.87,SSW,202,18.4,18.4,47,0.00,CLR,,0.00,WeatherDisplay:10.37,2013-09-21 16:44:00,
2013-09-21 09:49:00,68.6,48.7,29.87,SW,217,21.0,21.0,49,0.00,CLR,,0.00,WeatherDisplay:10.37,2013-09-21 16:49:00,
2013-09-21 09:54:00,68.6,49.2,29.87,SSW,208,19.6,19.6,50,0.00,CLR,,0.00,WeatherDisplay:10.37,2013-09-21 16:54:00,
2013-09-21 09:59:00,68.3,49.5,29.87,SW,225,21.9,21.9,51,0.00,CLR,,0.00,WeatherDisplay:10.37,2013-09-21 16:59:00,
2013-09-21 10:04:00,68.5,49.7,29.87,SW,221,18.4,18.4,51,0.00,CLR,,0.00,WeatherDisplay:10.37,2013-09-21 17:04:00,
2013-09-21 10:09:00,68.5,49.7,29.87,SW,223,23.0,23.0,51,0.00,CLR,,0.00,WeatherDisplay:10.37,2013-09-21 17:09:00,
2013-09-21 10:14:00,68.8,49.9,29.87,WSW,241,23.0,23.0,51,0.00,CLR,,0.00,WeatherDisplay:10.37,2013-09-21 17:14:00,
2013-09-21 10:19:00,68.8,50.5,29.87,SW,230,23.0,23.0,52,0.00,CLR,,0.00,WeatherDisplay:10.37,2013-09-21 17:19:00,
2013-09-21 10:24:00,69.0,50.1,29.87,SSW,205,19.6,19.6,51,0.00,CLR,,0.00,WeatherDisplay:10.37,2013-09-21 17:24:00,
2013-09-21 10:29:00,69.3,49.9,29.87,SSW,202,23.0,23.0,50,0.00,CLR,,0.00,WeatherDisplay:10.37,2013-09-21 17:29:00,
2013-09-21 10:34:00,69.5,50.6,29.87,SSW,207,19.6,19.6,51,0.00,CLR,,0.00,WeatherDisplay:10.37,2013-09-21 17:34:00,
2013-09-21 10:39:00,69.9,50.4,29.86,SSW,205,19.6,19.6,50,0.00,CLR,,0.00,WeatherDisplay:10.37,2013-09-21 17:39:00,
2013-09-21 10:44:00,69.8,50.3,29.86,SW,219,20.7,20.7,50,0.00,CLR,,0.00,WeatherDisplay:10.37,2013-09-21 17:44:00,
2013-09-21 10:49:00,70.8,50.1,29.86,SW,219,21.0,21.0,48,0.00,CLR,,0.00,WeatherDisplay:10.37,2013-09-21 17:49:00,
2013-09-21 10:54:00,70.7,49.5,29.86,SSW,205,25.3,25.3,47,0.00,CLR,,0.00,WeatherDisplay:10.37,2013-09-21 17:54:00,
2013-09-21 10:59:00,71.3,49.4,29.86,South,169,23.0,23.0,46,0.00,CLR,,0.00,WeatherDisplay:10.37,2013-09-21 17:59:00,
2013-09-21 11:04:00,71.7,48.6,29.86,SSW,196,24.2,24.2,44,0.00,CLR,,0.00,WeatherDisplay:10.37,2013-09-21 18:04:00,
2013-09-21 11:09:00,71.8,49.3,29.86,SW,218,23.0,23.0,45,0.00,CLR,,0.00,WeatherDisplay:10.37,2013-09-21 18:09:00,
2013-09-21 11:14:00,72.0,49.5,29.86,SSW,205,24.2,24.2,45,0.00,CLR,,0.00,WeatherDisplay:10.37,2013-09-21 18:14:00,
2013-09-21 11:19:00,72.4,49.3,29.86,South,183,19.6,19.6,44,0.00,CLR,,0.00,WeatherDisplay:10.37,2013-09-21 18:19:00,
2013-09-21 11:24:00,72.8,49.6,29.86,SSW,198,20.0,20.0,44,0.00,CLR,,0.00,WeatherDisplay:10.37,2013-09-21 18:24:00,
2013-09-21 11:29:00,72.5,49.3,29.85,SSW,194,19.6,19.6,44,0.00,CLR,,0.00,WeatherDisplay:10.37,2013-09-21 18:29:00,
2013-09-21 11:34:00,73.1,48.6,29.85,SSW,195,25.3,25.3,42,0.00,CLR,,0.00,WeatherDisplay:10.37,2013-09-21 18:34:00,
2013-09-21 11:39:00,73.5,49.0,29.85,SW,214,23.0,23.0,42,0.00,CLR,,0.00,WeatherDisplay:10.37,2013-09-21 18:39:00,
2013-09-21 11:44:00,73.6,49.1,29.85,South,187,26.5,26.5,42,0.00,CLR,,0.00,WeatherDisplay:10.37,2013-09-21 18:44:00,
2013-09-21 11:49:00,73.4,48.9,29.85,SW,231,26.5,26.5,42,0.00,CLR,,0.00,WeatherDisplay:10.37,2013-09-21 18:49:00,
2013-09-21 11:54:00,73.8,48.6,29.85,SSW,203,28.8,28.8,41,0.00,CLR,,0.00,WeatherDisplay:10.37,2013-09-21 18:54:00,
2013-09-21 11:59:00,74.4,49.2,29.84,SW,214,25.3,25.3,41,0.00,CLR,,0.00,WeatherDisplay:10.37,2013-09-21 18:59:00,
2013-09-21 12:04:00,74.8,48.2,29.84,South,191,23.0,23.0,39,0.00,CLR,,0.00,WeatherDisplay:10.37,2013-09-21 19:04:00,
2013-09-21 12:09:00,75.2,48.5,29.85,SW,214,22.0,22.0,39,0.00,CLR,,0.00,WeatherDisplay:10.37,2013-09-21 19:09:00,
2013-09-21 12:14:00,74.9,48.9,29.85,South,182,23.0,23.0,40,0.00,CLR,,0.00,WeatherDisplay:10.37,2013-09-21 19:14:00,
2013-09-21 12:19:00,74.9,49.6,29.84,SE,145,26.5,26.5,41,0.00,CLR,,0.00,WeatherDisplay:10.37,2013-09-21 19:19:00,
2013-09-21 12:24:00,75.3,49.3,29.85,SSW,210,23.0,23.0,40,0.00,CLR,,0.00,WeatherDisplay:10.37,2013-09-21 19:24:00,
2013-09-21 12:29:00,75.5,49.5,29.84,SSW,196,24.2,24.2,40,0.00,CLR,,0.00,WeatherDisplay:10.37,2013-09-21 19:29:00,
2013-09-21 12:34:00,75.5,49.5,29.84,SSW,206,26.5,26.5,40,0.00,CLR,,0.00,WeatherDisplay:10.37,2013-09-21 19:34:00,
2013-09-21 12:39:00,75.9,49.8,29.84,South,190,20.7,20.7,40,0.00,CLR,,0.00,WeatherDisplay:10.37,2013-09-21 19:39:00,
2013-09-21 12:44:00,75.7,49.7,29.84,South,172,24.2,24.2,40,0.00,CLR,,0.00,WeatherDisplay:10.37,2013-09-21 19:44:00,
2013-09-21 12:49:00,75.5,49.5,29.83,SSE,161,25.3,25.3,40,0.00,CLR,,0.00,WeatherDisplay:10.37,2013-09-21 19:49:00,
2013-09-21 12:54:00,75.9,48.5,29.83,SW,218,24.2,24.2,38,0.00,CLR,,0.00,WeatherDisplay:10.37,2013-09-21 19:54:00,
2013-09-21 12:59:00,76.4,48.9,29.83,SSW,213,24.2,24.2,38,0.00,CLR,,0.00,WeatherDisplay:10.37,2013-09-21 19:59:00,
2013-09-21 13:04:00,76.6,48.4,29.83,SSW,200,21.9,21.9,37,0.00,CLR,,0.00,WeatherDisplay:10.37,2013-09-21 20:04:00,
2013-09-21 13:09:00,77.3,47.5,29.82,SSW,213,25.3,25.3,35,0.00,CLR,,0.00,WeatherDisplay:10.37,2013-09-21 20:09:00,
2013-09-21 13:14:00,78.0,47.4,29.82,SW,229,25.3,25.3,34,0.00,CLR,,0.00,WeatherDisplay:10.37,2013-09-21 20:14:00,
2013-09-21 13:19:00,77.9,47.3,29.82,SSW,204,20.0,20.0,34,0.00,CLR,,0.00,WeatherDisplay:10.37,2013-09-21 20:19:00,
2013-09-21 13:24:00,78.2,47.5,29.82,South,178,21.9,21.9,34,0.00,CLR,,0.00,WeatherDisplay:10.37,2013-09-21 20:24:00,
2013-09-21 13:29:00,77.7,47.1,29.82,South,186,26.5,26.5,34,0.00,CLR,,0.00,WeatherDisplay:10.37,2013-09-21 20:29:00,
2013-09-21 13:34:00,77.4,47.6,29.82,SSW,205,24.2,24.2,35,0.00,CLR,,0.00,WeatherDisplay:10.37,2013-09-21 20:34:00,
2013-09-21 13:39:00,77.8,47.9,29.82,SSW,206,24.0,24.0,35,0.00,CLR,,0.00,WeatherDisplay:10.37,2013-09-21 20:39:00,
2013-09-21 13:44:00,77.3,48.3,29.82,SSW,213,23.0,23.0,36,0.00,CLR,,0.00,WeatherDisplay:10.37,2013-09-21 20:44:00,
2013-09-21 13:49:00,76.9,48.6,29.82,SSW,198,25.3,25.3,37,0.00,CLR,,0.00,WeatherDisplay:10.37,2013-09-21 20:49:00,
2013-09-21 13:54:00,76.9,49.4,29.82,WSW,244,26.5,26.5,38,0.00,CLR,,0.00,WeatherDisplay:10.37,2013-09-21 20:54:00,
2013-09-21 13:59:00,77.2,48.9,29.82,WSW,252,25.3,25.3,37,0.00,CLR,,0.00,WeatherDisplay:10.37,2013-09-21 20:59:00,
2013-09-21 14:04:00,77.0,48.7,29.81,South,187,24.2,24.2,37,0.00,CLR,,0.00,WeatherDisplay:10.37,2013-09-21 21:04:00,
2013-09-21 14:09:00,77.0,49.4,29.81,SSW,213,24.2,24.2,38,0.00,CLR,,0.00,WeatherDisplay:10.37,2013-09-21 21:09:00,
2013-09-21 14:14:00,77.1,48.8,29.81,SSW,196,25.3,25.3,37,0.00,CLR,,0.00,WeatherDisplay:10.37,2013-09-21 21:14:00,
2013-09-21 14:19:00,78.0,50.3,29.81,SSW,213,21.9,21.9,38,0.00,CLR,,0.00,WeatherDisplay:10.37,2013-09-21 21:19:00,
2013-09-21 14:24:00,77.3,49.7,29.80,SSW,213,25.3,25.3,38,0.00,CLR,,0.00,WeatherDisplay:10.37,2013-09-21 21:24:00,
2013-09-21 14:29:00,77.3,50.4,29.81,SSW,196,23.0,23.0,39,0.00,CLR,,0.00,WeatherDisplay:10.37,2013-09-21 21:29:00,
2013-09-21 14:34:00,77.3,49.7,29.80,SSW,196,26.5,26.5,38,0.00,CLR,,0.00,WeatherDisplay:10.37,2013-09-21 21:34:00,
2013-09-21 14:39:00,77.4,49.1,29.80,SSW,196,27.6,27.6,37,0.00,CLR,,0.00,WeatherDisplay:10.37,2013-09-21 21:39:00,
2013-09-21 14:44:00,77.4,49.1,29.80,SW,215,26.5,26.5,37,0.00,CLR,,0.00,WeatherDisplay:10.37,2013-09-21 21:44:00,
2013-09-21 14:49:00,77.1,48.8,29.80,SW,229,25.3,25.3,37,0.00,CLR,,0.00,WeatherDisplay:10.37,2013-09-21 21:49:00,
2013-09-21 14:54:00,77.8,48.7,29.80,SSW,208,20.7,20.7,36,0.00,CLR,,0.00,WeatherDisplay:10.37,2013-09-21 21:54:00,
2013-09-21 14:59:00,77.8,49.4,29.80,SSW,202,20.0,20.0,37,0.00,CLR,,0.00,WeatherDisplay:10.37,2013-09-21 21:59:00,
2013-09-21 15:04:00,77.6,49.3,29.80,SSW,207,20.7,20.7,37,0.00,CLR,,0.00,WeatherDisplay:10.37,2013-09-21 22:04:00,
2013-09-21 15:09:00,77.9,48.8,29.79,SW,225,19.6,19.6,36,0.00,CLR,,0.00,WeatherDisplay:10.37,2013-09-21 22:09:00,
2013-09-21 15:14:00,77.3,49.7,29.79,SW,215,25.3,25.3,38,0.00,CLR,,0.00,WeatherDisplay:10.37,2013-09-21 22:14:00,
2013-09-21 15:19:00,77.1,48.8,29.79,SW,219,28.8,28.8,37,0.00,CLR,,0.00,WeatherDisplay:10.37,2013-09-21 22:19:00,
2013-09-21 15:24:00,76.8,49.3,29.78,SSW,213,21.9,21.9,38,0.00,CLR,,0.00,WeatherDisplay:10.37,2013-09-21 22:24:00,
2013-09-21 15:29:00,76.6,49.1,29.78,SSE,163,21.9,21.9,38,0.00,CLR,,0.00,WeatherDisplay:10.37,2013-09-21 22:29:00,
2013-09-21 15:34:00,76.9,48.6,29.78,West,263,25.3,25.3,37,0.00,CLR,,0.00,WeatherDisplay:10.37,2013-09-21 22:34:00,
2013-09-21 15:39:00,77.0,48.7,29.78,SW,214,25.3,25.3,37,0.00,CLR,,0.00,WeatherDisplay:10.37,2013-09-21 22:39:00,
2013-09-21 15:44:00,76.2,48.7,29.79,SSW,209,26.5,26.5,38,0.00,CLR,,0.00,WeatherDisplay:10.37,2013-09-21 22:44:00,
2013-09-21 15:49:00,76.7,48.5,29.78,SSW,210,26.5,26.5,37,0.00,CLR,,0.00,WeatherDisplay:10.37,2013-09-21 22:49:00,
2013-09-21 15:54:00,76.1,48.6,29.78,SSW,196,23.0,23.0,38,0.00,CLR,,0.00,WeatherDisplay:10.37,2013-09-21 22:54:00,
2013-09-21 15:59:00,75.9,48.5,29.78,South,175,24.2,24.2,38,0.00,CLR,,0.00,WeatherDisplay:10.37,2013-09-21 22:59:00,
2013-09-21 16:04:00,75.7,49.0,29.78,SW,229,19.6,19.6,39,0.00,CLR,,0.00,WeatherDisplay:10.37,2013-09-21 23:04:00,
2013-09-21 16:09:00,75.8,49.1,29.78,SSW,205,24.2,24.2,39,0.00,CLR,,0.00,WeatherDisplay:10.37,2013-09-21 23:09:00,
2013-09-21 16:14:00,75.5,49.5,29.78,SW,215,20.7,20.7,40,0.00,CLR,,0.00,WeatherDisplay:10.37,2013-09-21 23:14:00,
2013-09-21 16:19:00,75.4,49.4,29.78,SSW,195,25.3,25.3,40,0.00,CLR,,0.00,WeatherDisplay:10.37,2013-09-21 23:19:00,
2013-09-21 16:24:00,75.2,49.9,29.78,SSW,203,25.3,25.3,41,0.00,CLR,,0.00,WeatherDisplay:10.37,2013-09-21 23:24:00,
2013-09-21 16:29:00,75.1,50.4,29.78,SSW,192,19.6,19.6,42,0.00,CLR,,0.00,WeatherDisplay:10.37,2013-09-21 23:29:00,
2013-09-21 16:34:00,75.0,51.0,29.77,SSW,202,23.0,23.0,43,0.00,CLR,,0.00,WeatherDisplay:10.37,2013-09-21 23:34:00,
2013-09-21 16:39:00,74.9,50.3,29.77,SW,236,24.0,24.0,42,0.00,CLR,,0.00,WeatherDisplay:10.37,2013-09-21 23:39:00,
2013-09-21 16:44:00,74.7,50.7,29.77,SW,231,19.6,19.6,43,0.00,CLR,,0.00,WeatherDisplay:10.37,2013-09-21 23:44:00,
2013-09-21 16:49:00,74.8,50.2,29.77,WSW,240,22.0,22.0,42,0.00,CLR,,0.00,WeatherDisplay:10.37,2013-09-21 23:49:00,
2013-09-21 16:54:00,74.5,50.5,29.77,SSW,211,29.9,29.9,43,0.00,CLR,,0.00,WeatherDisplay:10.37,2013-09-21 23:54:00,
2013-09-21 16:59:00,73.6,49.7,29.77,SSW,197,21.9,21.9,43,0.00,CLR,,0.00,WeatherDisplay:10.37,2013-09-21 23:59:00,
2013-09-21 17:04:00,73.0,50.4,29.78,SSW,199,19.6,19.6,45,0.00,CLR,,0.00,WeatherDisplay:10.37,2013-09-22 00:04:00,
2013-09-21 17:09:00,72.5,49.9,29.77,SSW,211,21.0,21.0,45,0.00,CLR,,0.00,WeatherDisplay:10.37,2013-09-22 00:09:00,
2013-09-21 17:14:00,72.7,50.1,29.77,SW,217,21.9,21.9,45,0.00,CLR,,0.00,WeatherDisplay:10.37,2013-09-22 00:14:00,
2013-09-21 17:19:00,72.9,50.3,29.77,South,185,26.5,26.5,45,0.00,CLR,,0.00,WeatherDisplay:10.37,2013-09-22 00:19:00,
2013-09-21 17:24:00,73.0,50.4,29.77,SSW,192,20.7,20.7,45,0.00,CLR,,0.00,WeatherDisplay:10.37,2013-09-22 00:24:00,
2013-09-21 17:29:00,73.0,50.4,29.77,SSW,208,22.0,22.0,45,0.00,CLR,,0.00,WeatherDisplay:10.37,2013-09-22 00:29:00,
2013-09-21 17:34:00,72.8,50.2,29.78,SSW,213,21.9,21.9,45,0.00,CLR,,0.00,WeatherDisplay:10.37,2013-09-22 00:34:00,
2013-09-21 17:39:00,71.9,50.6,29.78,SSW,210,19.6,19.6,47,0.00,CLR,,0.00,WeatherDisplay:10.37,2013-09-22 00:39:00,
2013-09-21 17:44:00,71.1,50.4,29.78,SSW,209,20.7,20.7,48,0.00,CLR,,0.00,WeatherDisplay:10.37,2013-09-22 00:44:00,
2013-09-21 17:49:00,70.5,50.4,29.78,SW,223,19.6,19.6,49,0.00,CLR,,0.00,WeatherDisplay:10.37,2013-09-22 00:49:00,
2013-09-21 17:54:00,70.1,50.0,29.77,WSW,244,23.0,23.0,49,0.00,CLR,,0.00,WeatherDisplay:10.37,2013-09-22 00:54:00,
2013-09-21 17:59:00,69.6,50.1,29.78,SSW,207,19.6,19.6,50,0.00,CLR,,0.00,WeatherDisplay:10.37,2013-09-22 00:59:00,
2013-09-21 18:04:00,69.6,50.1,29.78,SSW,198,20.0,20.0,50,0.00,CLR,,0.00,WeatherDisplay:10.37,2013-09-22 01:04:00,
2013-09-21 18:09:00,69.1,50.2,29.78,SSW,202,18.4,18.4,51,0.00,CLR,,0.00,WeatherDisplay:10.37,2013-09-22 01:09:00,
2013-09-21 18:14:00,69.2,50.3,29.78,SW,220,18.0,18.0,51,0.00,CLR,,0.00,WeatherDisplay:10.37,2013-09-22 01:14:00,
2013-09-21 18:19:00,69.4,49.9,29.78,SW,217,18.4,18.4,50,0.00,CLR,,0.00,WeatherDisplay:10.37,2013-09-22 01:19:00,
2013-09-21 18:24:00,69.0,49.6,29.78,SSW,200,20.7,20.7,50,0.00,CLR,,0.00,WeatherDisplay:10.37,2013-09-22 01:24:00,
2013-09-21 18:29:00,68.7,49.8,29.78,SSW,209,18.4,18.4,51,0.00,CLR,,0.00,WeatherDisplay:10.37,2013-09-22 01:29:00,
2013-09-21 18:34:00,68.5,50.2,29.78,SSW,205,13.0,13.0,52,0.00,CLR,,0.00,WeatherDisplay:10.37,2013-09-22 01:34:00,
2013-09-21 18:39:00,68.0,50.2,29.78,SSW,202,19.6,19.6,53,0.00,CLR,,0.00,WeatherDisplay:10.37,2013-09-22 01:39:00,
2013-09-21 18:44:00,67.6,50.4,29.78,SW,216,13.8,13.8,54,0.00,CLR,,0.00,WeatherDisplay:10.37,2013-09-22 01:44:00,
2013-09-21 18:49:00,67.1,49.9,29.78,SSW,196,18.4,18.4,54,0.00,CLR,,0.00,WeatherDisplay:10.37,2013-09-22 01:49:00,
2013-09-21 18:54:00,66.6,50.4,29.78,SSW,202,12.7,12.7,56,0.00,CLR,,0.00,WeatherDisplay:10.37,2013-09-22 01:54:00,
2013-09-21 18:59:00,66.4,50.2,29.78,South,186,12.7,12.7,56,0.00,CLR,,0.00,WeatherDisplay:10.37,2013-09-22 01:59:00,
2013-09-21 19:04:00,66.2,50.5,29.78,SW,214,15.0,15.0,57,0.00,CLR,,0.00,WeatherDisplay:10.37,2013-09-22 02:04:00,
2013-09-21 19:09:00,66.1,50.4,29.78,SSW,211,17.3,17.3,57,0.00,CLR,,0.00,WeatherDisplay:10.37,2013-09-22 02:09:00,
2013-09-21 19:14:00,66.5,49.8,29.78,SSW,193,12.7,12.7,55,0.00,CLR,,0.00,WeatherDisplay:10.37,2013-09-22 02:14:00,
2013-09-21 19:19:00,67.1,47.3,29.78,WSW,248,18.4,18.4,49,0.00,CLR,,0.00,WeatherDisplay:10.37,2013-09-22 02:19:00,
2013-09-21 19:24:00,67.4,45.3,29.78,WSW,242,19.6,19.6,45,0.00,CLR,,0.00,WeatherDisplay:10.37,2013-09-22 02:24:00,
2013-09-21 19:29:00,67.4,44.1,29.78,West,259,16.1,16.1,43,0.00,CLR,,0.00,WeatherDisplay:10.37,2013-09-22 02:29:00,
2013-09-21 19:34:00,67.4,43.5,29.78,West,281,18.4,18.4,42,0.00,CLR,,0.00,WeatherDisplay:10.37,2013-09-22 02:34:00,
2013-09-21 19:39:00,67.9,44.6,29.79,West,281,10.4,10.4,43,0.00,CLR,,0.00,WeatherDisplay:10.37,2013-09-22 02:39:00,
2013-09-21 19:44:00,67.9,44.0,29.79,North,355,0.0,0.0,42,0.00,CLR,,0.00,WeatherDisplay:10.37,2013-09-22 02:44:00,
2013-09-21 19:50:00,67.7,43.8,29.79,NNW,327,0.0,0.0,42,0.00,CLR,,0.00,WeatherDisplay:10.37,2013-09-22 02:50:00,
2013-09-21 19:55:00,67.6,43.7,29.79,West,277,0.0,0.0,42,0.00,CLR,,0.00,WeatherDisplay:10.37,2013-09-22 02:55:00,
2013-09-21 20:00:00,67.2,39.3,29.80,SW,235,17.3,17.3,36,0.00,CLR,,0.00,WeatherDisplay:10.37,2013-09-22 03:00:00,
2013-09-21 20:05:00,66.7,37.4,29.80,WSW,258,16.1,16.1,34,0.00,CLR,,0.00,WeatherDisplay:10.37,2013-09-22 03:05:00,
2013-09-21 20:10:00,66.5,37.2,29.80,WSW,252,16.1,16.1,34,0.00,CLR,,0.00,WeatherDisplay:10.37,2013-09-22 03:10:00,
2013-09-21 20:15:00,66.2,37.0,29.80,WSW,244,17.3,17.3,34,0.00,CLR,,0.00,WeatherDisplay:10.37,2013-09-22 03:15:00,
2013-09-21 20:20:00,66.1,37.6,29.81,West,259,12.7,12.7,35,0.00,CLR,,0.00,WeatherDisplay:10.37,2013-09-22 03:20:00,
2013-09-21 20:25:00,65.8,37.4,29.81,WSW,246,10.4,10.4,35,0.00,CLR,,0.00,WeatherDisplay:10.37,2013-09-22 03:25:00,
2013-09-21 20:30:00,65.6,37.9,29.81,West,269,11.5,11.5,36,0.00,CLR,,0.00,WeatherDisplay:10.37,2013-09-22 03:30:00,
2013-09-21 20:35:00,65.4,38.4,29.81,West,264,13.8,13.8,37,0.00,CLR,,0.00,WeatherDisplay:10.37,2013-09-22 03:35:00,
2013-09-21 20:40:00,65.4,38.4,29.81,West,263,10.4,10.4,37,0.00,CLR,,0.00,WeatherDisplay:10.37,2013-09-22 03:40:00,
2013-09-21 20:45:00,65.2,39.6,29.81,WSW,248,11.5,11.5,39,0.00,CLR,,0.00,WeatherDisplay:10.37,2013-09-22 03:45:00,
2013-09-21 20:50:00,65.1,40.8,29.81,SW,233,13.8,13.8,41,0.00,CLR,,0.00,WeatherDisplay:10.37,2013-09-22 03:50:00,
2013-09-21 20:55:00,64.9,41.2,29.81,West,269,11.5,11.5,42,0.00,CLR,,0.00,WeatherDisplay:10.37,2013-09-22 03:55:00,
2013-09-21 21:00:00,64.8,41.2,29.81,West,265,11.5,11.5,42,0.00,CLR,,0.00,WeatherDisplay:10.37,2013-09-22 04:00:00,
2013-09-21 21:01:00,64.8,41.2,29.81,West,272,8.0,8.0,42,0.00,CLR,,0.00,WeatherDisplay:10.37,2013-09-22 04:01:00,
2013-09-21 21:02:00,64.8,41.2,29.81,West,268,7.0,7.0,42,0.00,CLR,,0.00,WeatherDisplay:10.37,2013-09-22 04:02:00,
2013-09-21 21:03:00,64.8,41.2,29.81,WSW,242,6.9,6.9,42,0.00,CLR,,0.00,WeatherDisplay:10.37,2013-09-22 04:03:00,
2013-09-21 21:08:00,64.6,42.2,29.82,West,260,11.5,11.5,44,0.00,CLR,,0.00,WeatherDisplay:10.37,2013-09-22 04:08:00,
2013-09-21 21:13:00,64.4,42.0,29.81,West,271,11.5,11.5,44,0.00,CLR,,0.00,WeatherDisplay:10.37,2013-09-22 04:13:00,
2013-09-21 21:18:00,64.4,42.0,29.82,WNW,296,11.5,11.5,44,0.00,CLR,,0.00,WeatherDisplay:10.37,2013-09-22 04:18:00,
2013-09-21 21:23:00,64.5,42.1,29.82,West,281,8.1,8.1,44,0.00,CLR,,0.00,WeatherDisplay:10.37,2013-09-22 04:23:00,
2013-09-21 21:28:00,64.4,41.4,29.82,NW,306,0.0,0.0,43,0.00,CLR,,0.00,WeatherDisplay:10.37,2013-09-22 04:28:00,
2013-09-21 21:33:00,64.1,41.7,29.82,WSW,257,5.0,5.0,44,0.00,CLR,,0.00,WeatherDisplay:10.37,2013-09-22 04:33:00,
2013-09-21 21:38:00,63.7,42.5,29.82,SW,223,11.5,11.5,46,0.00,CLR,,0.00,WeatherDisplay:10.37,2013-09-22 04:38:00,
2013-09-21 21:43:00,63.5,41.8,29.82,NW,315,10.4,10.4,45,0.00,CLR,,0.00,WeatherDisplay:10.37,2013-09-22 04:43:00,
2013-09-21 21:48:00,63.5,42.9,29.82,West,266,11.0,11.0,47,0.00,CLR,,0.00,WeatherDisplay:10.37,2013-09-22 04:48:00,
2013-09-21 21:53:00,62.8,42.8,29.82,West,265,16.1,16.1,48,0.00,CLR,,0.00,WeatherDisplay:10.37,2013-09-22 04:53:00,
2013-09-21 21:58:00,62.4,43.0,29.82,West,271,20.7,20.7,49,0.00,CLR,,0.00,WeatherDisplay:10.37,2013-09-22 04:58:00,
2013-09-21 22:03:00,62.1,42.7,29.82,WSW,250,20.7,20.7,49,0.00,CLR,,0.00,WeatherDisplay:10.37,2013-09-22 05:03:00,
2013-09-21 22:08:00,61.9,42.5,29.82,SW,232,18.4,18.4,49,0.00,CLR,,0.00,WeatherDisplay:10.37,2013-09-22 05:08:00,
2013-09-21 22:13:00,61.7,42.9,29.82,West,270,19.6,19.6,50,0.00,CLR,,0.00,WeatherDisplay:10.37,2013-09-22 05:13:00,
2013-09-21 22:18:00,61.9,43.0,29.82,WSW,257,18.4,18.4,50,0.00,CLR,,0.00,WeatherDisplay:10.37,2013-09-22 05:18:00,
2013-09-21 22:23:00,61.9,43.0,29.82,WSW,256,19.6,19.6,50,0.00,CLR,,0.00,WeatherDisplay:10.37,2013-09-22 05:23:00,
2013-09-21 22:28:00,61.6,42.8,29.82,West,262,16.1,16.1,50,0.00,CLR,,0.00,WeatherDisplay:10.37,2013-09-22 05:28:00,
2013-09-21 22:33:00,61.4,43.1,29.82,West,266,23.0,23.0,51,0.00,CLR,,0.00,WeatherDisplay:10.37,2013-09-22 05:33:00,
2013-09-21 22:38:00,61.4,43.1,29.83,SW,229,23.0,23.0,51,0.00,CLR,,0.00,WeatherDisplay:10.37,2013-09-22 05:38:00,
2013-09-21 22:43:00,61.2,42.9,29.82,SSW,209,17.3,17.3,51,0.00,CLR,,0.00,WeatherDisplay:10.37,2013-09-22 05:43:00,
2013-09-21 22:48:00,60.9,43.1,29.82,SW,235,19.6,19.6,52,0.00,CLR,,0.00,WeatherDisplay:10.37,2013-09-22 05:48:00,
2013-09-21 22:53:00,60.8,43.1,29.82,WSW,254,18.4,18.4,52,0.00,CLR,,0.00,WeatherDisplay:10.37,2013-09-22 05:53:00,
2013-09-21 22:58:00,60.7,43.5,29.82,West,273,19.6,19.6,53,0.00,CLR,,0.00,WeatherDisplay:10.37,2013-09-22 05:58:00,
2013-09-21 23:03:00,60.5,43.8,29.82,West,265,20.7,20.7,54,0.00,CLR,,0.00,WeatherDisplay:10.37,2013-09-22 06:03:00,
2013-09-21 23:08:00,60.4,43.7,29.82,SW,226,16.1,16.1,54,0.00,CLR,,0.00,WeatherDisplay:10.37,2013-09-22 06:08:00,
2013-09-21 23:13:00,60.5,43.8,29.83,West,270,15.0,15.7,54,0.00,CLR,,0.00,WeatherDisplay:10.37,2013-09-22 06:13:00,
2013-09-21 23:18:00,60.6,43.4,29.83,WSW,252,19.6,19.6,53,0.00,CLR,,0.00,WeatherDisplay:10.37,2013-09-22 06:18:00,
2013-09-21 23:23:00,60.5,43.3,29.83,WSW,251,18.0,18.0,53,0.00,CLR,,0.00,WeatherDisplay:10.37,2013-09-22 06:23:00,
2013-09-21 23:28:00,60.2,44.0,29.83,West,278,19.6,19.6,55,0.00,CLR,,0.00,WeatherDisplay:10.37,2013-09-22 06:28:00,
2013-09-21 23:33:00,60.0,43.8,29.83,WSW,257,15.0,15.0,55,0.00,CLR,,0.00,WeatherDisplay:10.37,2013-09-22 06:33:00,
2013-09-21 23:38:00,59.8,43.6,29.82,West,266,11.5,11.5,55,0.00,CLR,,0.00,WeatherDisplay:10.37,2013-09-22 06:38:00,
2013-09-21 23:43:00,59.8,44.1,29.82,WSW,241,20.7,20.7,56,0.00,CLR,,0.00,WeatherDisplay:10.37,2013-09-22 06:43:00,
2013-09-21 23:48:00,59.9,44.2,29.82,West,266,18.4,18.4,56,0.00,CLR,,0.00,WeatherDisplay:10.37,2013-09-22 06:48:00,
2013-09-21 23:53:00,59.7,44.0,29.82,West,259,18.0,18.0,56,0.00,CLR,,0.00,WeatherDisplay:10.37,2013-09-22 06:53:00,
2013-09-21 23:58:00,59.5,44.2,29.82,West,268,22.0,22.0,57,0.00,CLR,,0.00,WeatherDisplay:10.37,2013-09-22 06:58:00,